Location: Great Snoring
(52.8667°N, 0.8833°E)
Time: 16:05:55
(UTC+00:00)

Spot 1 - Pass Details

Date: 19 May 2025
Orbit: 568 x 753 km, 98.7° (Epoch: 12 June)

Event Time Altitude Azimuth Distance (km) Brightness Sun altitude
Rises 23:17:35 0° 18° (NNE) 2,853 8.6 -16.7°
Reaches altitude 10° 23:19:45 10° 23° (NNE) 1,968 7.5 -16.8°
Maximum altitude 23:23:58 58° 103° (ESE) 740 4.3 -16.9°
Enters shadow 23:25:46 32° 167° (SSE) 1,088 4.7 -16.9°
